Location: Bernay
(48.6766°N, 2.9386°E)
Time: 05:47:42
(UTC+00:00)

NOSS 3-4 (A) - Pass Details

Date: 12 January 2026
Orbit: 769 x 1442 km, 63.4° (Epoch: 10 January)

Event Time Altitude Azimuth Distance (km) Brightness Sun altitude
Rises 17:31:41 0° 185° (S) 3,225 6.6 -12.1°
Reaches altitude 10° 17:34:17 10° 174° (S) 2,314 5.6 -12.5°
Maximum altitude 17:38:44 29° 115° (ESE) 1,439 4.0 -13.2°
Enters shadow 17:41:28 19° 72° (ENE) 1,865 4.3 -13.6°
